Regional Weather Roundup
Issued by NWS

Home | Current Version | Previous Version | Graphics & Text | Print | Product List | Glossary Off
Versions: 1 2 3 4 5 6 7 8 9 10 11 12 13 14 15 16 17 18 19 20 21 22 23 24 25 26 27 28 29 30 31 32 33 34 35 36 37 38 39 40 41 42 43 44 45 46 47 48 49 50

933
ASUS43 KMKX 250411
RWRWI

WISCONSIN REGIONAL WEATHER ROUNDUP
NATIONAL WEATHER SERVICE MILWAUKEE/SULLIVAN WI
1100 PM CDT THU MAY 24 2018

NOTE: "FAIR" INDICATES FEW OR NO CLOUDS BELOW 12,000 FEET WITH NO
SIGNIFICANT WEATHER AND/OR OBSTRUCTIONS TO VISIBILITY.

WIZ001-002-006>008-014>016-023>028-250500-
NORTHWEST WISCONSIN

CITY           SKY/WX    TMP DP  RH WIND       PRES   REMARKS
SUPERIOR ARPT  CLOUDY    50  50 100 CALM      29.84S FOG
ASHLAND        FOG       64  63  96 CALM      29.85S VSB 1/2
HAYWARD        FAIR      77  63  61 S13       29.88R
SIREN          FAIR      73  56  55 S6        29.87S
CUMBERLAND     LGT RAIN  64  61  88 S14       29.93S
RICE LAKE      RAIN      70  62  75 SW9G16    29.96R
CHETEK         RAIN      68  63  85 SW7G21    29.93S
LADYSMITH      FAIR      76  63  63 SW15G21   29.95R
EAU CLAIRE     FAIR      72  60  66 W17G32    29.94S
MENOMONIE      RAIN      66  64  96 SW9       29.98R
NEW RICHMOND   MOCLDY    67  60  78 S10       29.90F
OSCEOLA        MOCLDY    68  62  80 SE8       29.92S
$$

WIZ003>005-009-010-017-018-250500-
NORTH CENTRAL WISCONSIN

CITY           SKY/WX    TMP DP  RH WIND       PRES   REMARKS
MANITOWISH WTR FAIR      63  63 100 SE6       29.95S
ARBOR VITAE    FAIR      64  63  96 CALM      29.96S
WOODRUFF       FAIR      64  63  96 CALM      29.96S
RHINELANDER    LGT RAIN  67  65  93 E7        29.99S
EAGLE RIVER    MOCLDY    62  62  99 NE5       29.98R
LAND O LAKES   FAIR      64  63  97 SE7       29.99F
PHILLIPS       FAIR      73  63  71 S7        29.93S
TOMAHAWK       CLOUDY    68  61  79 CALM      29.97R
MEDFORD        CLOUDY    72  61  68 S12       29.96S
MERRILL        MOCLDY    75  63  64 SW7       29.97R
$$

WIZ029-030-035-036-043>047-250500-
CENTRAL WISCONSIN

CITY           SKY/WX    TMP DP  RH WIND       PRES   REMARKS
WAUSAU         FAIR      74  61  63 S6        29.95S
MOSINEE        FAIR      70  61  73 S7        29.98S
MARSHFIELD     FAIR      72  62  71 S8        29.96S
STEVENS POINT  FAIR      72  59  63 S7        29.98S
WAUPACA        FAIR      73  60  65 CALM      29.98S
WAUTOMA        FAIR      67  62  84 CALM      29.99R
WISC RAPIDS    FAIR      74  61  63 S7        29.98R
CAMP DOUGLAS   FAIR      69  64  86 S7        29.97S
$$

WIZ011>013-019>022-031-037>040-048>050-250500-
NORTHEAST WISCONSIN

CITY           SKY/WX    TMP DP  RH WIND       PRES   REMARKS
ANTIGO         FAIR      68  60  74 S7        29.99R
SHAWANO        FAIR      75  61  61 CALM      29.96R
OCONTO         FAIR      69  57  66 S3        29.95S
STURGEON BAY   FAIR      69  53  56 S10       29.97F
GREEN BAY      FAIR      70  57  63 S7        29.97S
MANITOWOC      FAIR      69  53  56 S8        30.00S
APPLETON       MOCLDY    70  57  64 S6        29.97S
CLINTONVILLE   FAIR      73  58  60 S3        29.97R
OSHKOSH        FAIR      69  61  75 S7        29.98S
$$

WIZ032>034-041-042-053>061-250500-
SOUTHWEST WISCONSIN

CITY           SKY/WX    TMP DP  RH WIND       PRES   REMARKS
LA CROSSE      FAIR      75  66  73 SE7       29.94R
SPARTA         FAIR      74  64  69 S5        29.97R
VIROQUA        FAIR      75  64  68 S8        30.00R
BOSCOBEL       FAIR      72  65  78 CALM      29.98R
PRAIRIE DU CHI FAIR      73  63  70 CALM      29.98R
PLATTEVILLE    FAIR      73  65  78 S7        30.01R
$$

WIZ056-057-062-063-064-067-068-250500-
SOUTH CENTRAL WISCONSIN

CITY           SKY/WX    TMP DP  RH WIND       PRES   REMARKS
REEDSBURG      FAIR      70  64  80 S6        29.98S
BARABOO/DELLS  FAIR      71  61  70 S6        29.99S
LONE ROCK      FAIR      71  66  84 CALM      29.98R
MINERAL POINT  FAIR      73  63  68 SE5       30.01S
MADISON        FAIR      75  61  61 S6        30.00R
MIDDLETON      FAIR      68  63  85 CALM      30.01R
WATERTOWN      FAIR      69  60  73 CALM      30.01R
MONROE         FAIR      72  59  64 S7        30.01S
JANESVILLE     FAIR      73  57  56 S6        30.01R
$$

WIZ051-052-058>065-066-070>072-250500-
SOUTHEAST WISCONSIN

CITY           SKY/WX    TMP DP  RH WIND       PRES   REMARKS
MILWAUKEE      FAIR      70  52  52 S8        30.01F
WAUKESHA       FAIR      68  52  56 S3        30.03S
MILWAUKEE/TIMM FAIR      70  46  43 S5        30.02S
RACINE         FAIR      69  51  52 S9        30.04S
BURLINGTON     FAIR      66  55  69 CALM      30.02S
KENOSHA        FAIR      68  52  56 S8        30.02F
FOND DU LAC    FAIR      69  59  70 S6        30.00R
SHEBOYGAN      FAIR      63  54  72 SW3       30.00S
WEST BEND      FAIR      68  52  56 S3        30.02R
JUNEAU         FAIR      68  59  73 SE6       30.02R
$$

LSZ147-162-250500-
LAKE SUPERIOR

STATION/POSITION TIME  TEMP    WIND        PRES    WAVE
                       AIR SEA DIR/SP/G            HT/PER
                 (UTC) (F)     (DEG/KT/KT) (MB)    (FT/S)
W MID LAKE BUOY  0350   46 36  110/  6/  8 1010.8F   0
DEVILS ISLAND    0400   49      20/  7/  8 1010.5R
SAXON HARBOR     0340   71     180/  6/ 10 1010.2S
$$

LMZ867-665-643>646-250500-
LAKE MICHIGAN

STATION/POSITION TIME  TEMP    WIND        PRES    WAVE
                       AIR SEA DIR/SP/G            HT/PER
                 (UTC) (F)     (DEG/KT/KT) (MB)    (FT/S)
N MID LAKE BUOY  0350   43 38  200/ 12/ 14 1014.4F   1/ 3
NORTHPORT PIER   0340   67     160/  3/  7 1014.2F
KEWAUNEE LAKESHO 0342   53     180/  7/  9 1014.7F
SHEBOYGAN LAKESH 0400   67     200/ 12/ 13 1015.6R
PORT WASHINGTON  0330   59     190/  2/  5 1016.9F
ATWATER BUOY     0307   57 50  170/  8/ 10 1016.3    1
MILWAUKEE LAKESH 0320   61        CALM       N/A
S MID LAKE BUOY  0350   53 39  150/ 10/ 10 1017.2F   0
KENOSHA   LAKESH 0400   65                 1016.6
$$

TC  - TEMPERATURE IN CELSIUS
VSB - VISIBILITY IN STATUTE MILES
WCI - WIND CHILL INDEX
HX  - HEAT INDEX





USA.gov is the U.S. government's official web portal to all federal, state and local government web resources and services.